Flag for U.S.A. Weather past 2 weeks in Knoxville, Tennessee, U.S.A.

Now
90 °F

Broken clouds.


Feels Like: 92 °F
Forecast: 69 / 90 °F
Wind: 7 mph from West

Location: McGhee Tyson Airport

Current Time: Sep 2, 2015 at 6:54:22 PM

Latest Report: Sep 2, 2015 at 5:53 PM


Visibility: 10 mi

Pressure: 29.97 "Hg

Humidity: 43%

Dew point: 65 °F

Location of KnoxvilleLocation

Historic Weather in Knoxville — Graph

°F

Knoxville temperature yesterday

Maximum temperature yesterday: 89 °F (at 3:53 PM)
Minimum temperature yesterday: 66 °F (at 6:53 AM)
Average temperature yesterday: 78 °F

Past Weeks' High & Low Weather Summary

 TemperatureHumidityPressure
High91 °F (Sep 2, 3:53 PM)100% (Aug 23, 3:53 AM)30.18 "Hg (Aug 23, 3:53 AM)
Low60 °F (Aug 25, 5:53 AM)33% (Aug 25, 4:53 PM)29.86 "Hg (Aug 19, 5:53 PM)
Average75 °F74%30.03 "Hg
* Reported Aug 18 3:53 PM — Sep 2 3:53 PM, Knoxville, Weather by CustomWeather, © 2015

Note: Actual official high and low records may vary slightly from our data, if they occured in-between our weather recording intervals... More about our weather records

Advertising

Knoxville weather history for previous 24 hours

 ConditionsComfort  
Time TempWeatherWind HumidityBarometerVisibility
3:53 PM
Wed, Sep 2
91 °FBroken clouds.6 mph39%30.01 "Hg10 mi
2:53 PM90 °FBroken clouds.8 mph43%30.03 "Hg10 mi
1:53 PM88 °FPartly sunny.No wind50%30.05 "Hg10 mi
12:53 PM87 °FPartly sunny.5 mph51%30.07 "Hg10 mi
11:53 AM83 °FBroken clouds.No wind63%30.09 "Hg10 mi
10:53 AM81 °FPartly sunny.No wind69%30.10 "Hg10 mi
9:53 AM75 °FPartly sunny.No wind85%30.11 "Hg10 mi
8:53 AM72 °FHigh level clouds.No wind93%30.12 "Hg10 mi
7:53 AM69 °FMostly cloudy.No wind100%30.11 "Hg10 mi
6:53 AM69 °FPassing clouds.No wind100%30.08 "Hg10 mi
5:53 AM69 °FPassing clouds.No wind100%30.07 "Hg10 mi
4:53 AM69 °FPassing clouds.No wind100%30.07 "Hg10 mi
3:53 AM71 °FPassing clouds.No wind100%30.06 "Hg10 mi
2:53 AM71 °FPassing clouds.No wind100%30.07 "Hg10 mi
1:53 AM72 °FPassing clouds.No wind93%30.08 "Hg10 mi
12:53 AM74 °FPassing clouds.No wind85%30.08 "Hg10 mi
11:53 PM
Tue, Sep 1
75 °FPassing clouds.No wind85%30.08 "Hg10 mi
10:53 PM76 °FPassing clouds.No wind88%30.07 "Hg10 mi
9:53 PM77 °FPartly cloudy.3 mph74%30.07 "Hg10 mi
8:53 PM78 °FPartly sunny.3 mph62%30.06 "Hg10 mi
7:53 PM83 °FPartly sunny.No wind55%30.04 "Hg10 mi
6:53 PM87 °FPartly sunny.5 mph43%30.05 "Hg10 mi
Weather by CustomWeather, © 2015

See weather overviewHow to use our weather pages